Time,TemperatureF,DewpointF,PressureIn,WindDirection,WindDirectionDegrees,WindSpeedMPH,WindSpeedGustMPH,Humidity,HourlyPrecipIn,Conditions,Clouds,dailyrainin,SoftwareType,DateUTC
2013-06-10 00:10:00,63.7,58.8,29.76,WNW,290,1.0,4.0,84,0.00,,---,0.00,VWS V14.01,2013-06-10 05:10:00,
2013-06-10 00:25:00,63.4,58.5,29.76,WNW,290,0.0,3.0,84,0.00,,---,0.00,VWS V14.01,2013-06-10 05:25:00,
2013-06-10 00:40:00,63.1,58.5,29.76,WNW,290,0.0,4.0,85,0.00,,---,0.00,VWS V14.01,2013-06-10 05:40:00,
2013-06-10 00:55:00,62.8,58.6,29.76,SSW,208,0.0,5.0,86,0.00,,---,0.00,VWS V14.01,2013-06-10 05:55:00,
2013-06-10 01:10:00,62.7,58.5,29.76,SSW,208,2.0,4.0,86,0.00,,---,0.00,VWS V14.01,2013-06-10 06:10:00,
2013-06-10 01:25:00,62.5,58.3,29.76,SSW,208,0.0,4.0,86,0.00,,---,0.00,VWS V14.01,2013-06-10 06:25:00,
2013-06-10 01:40:00,62.2,58.0,29.76,SSW,208,0.0,4.0,86,0.00,,---,0.00,VWS V14.01,2013-06-10 06:40:00,
2013-06-10 01:55:00,62.0,57.8,29.76,SSW,208,0.0,2.0,86,0.00,,---,0.00,VWS V14.01,2013-06-10 06:55:00,
2013-06-10 02:10:00,61.8,57.9,29.76,SSW,209,1.0,3.0,87,0.00,,---,0.00,VWS V14.01,2013-06-10 07:10:00,
2013-06-10 02:25:00,61.7,57.8,29.76,SW,218,0.0,4.0,87,0.00,,---,0.00,VWS V14.01,2013-06-10 07:25:00,
2013-06-10 02:40:00,61.6,57.7,29.75,WSW,255,1.0,5.0,87,0.00,,---,0.00,VWS V14.01,2013-06-10 07:40:00,
2013-06-10 02:55:00,61.4,57.8,29.75,WSW,248,0.0,5.0,88,0.00,,---,0.00,VWS V14.01,2013-06-10 07:55:00,
2013-06-10 03:10:00,61.3,57.7,29.75,West,264,0.0,5.0,88,0.00,,---,0.00,VWS V14.01,2013-06-10 08:10:00,
2013-06-10 03:25:00,61.1,57.5,29.76,West,264,2.0,4.0,88,0.00,,---,0.00,VWS V14.01,2013-06-10 08:25:00,
2013-06-10 03:40:00,60.9,57.3,29.75,West,264,0.0,3.0,88,0.00,,---,0.00,VWS V14.01,2013-06-10 08:40:00,
2013-06-10 03:55:00,60.7,57.4,29.76,West,264,3.0,4.0,89,0.00,,---,0.00,VWS V14.01,2013-06-10 08:55:00,
2013-06-10 04:10:00,60.4,57.2,29.76,West,265,0.0,3.0,89,0.00,,---,0.00,VWS V14.01,2013-06-10 09:10:00,
2013-06-10 04:25:00,60.0,56.8,29.76,West,265,0.0,4.0,89,0.00,,---,0.00,VWS V14.01,2013-06-10 09:25:00,
2013-06-10 04:40:00,59.7,56.8,29.76,West,265,0.0,3.0,90,0.00,,---,0.00,VWS V14.01,2013-06-10 09:40:00,
2013-06-10 04:55:00,59.4,56.5,29.76,West,265,0.0,2.0,90,0.00,,---,0.00,VWS V14.01,2013-06-10 09:55:00,
2013-06-10 05:10:00,59.0,56.4,29.77,West,265,1.0,1.0,91,0.00,,---,0.00,VWS V14.01,2013-06-10 10:10:00,
2013-06-10 05:25:00,58.7,56.1,29.77,West,265,0.0,1.0,91,0.00,,---,0.00,VWS V14.01,2013-06-10 10:25:00,
2013-06-10 05:40:00,58.7,56.4,29.78,West,265,0.0,1.0,92,0.00,,---,0.00,VWS V14.01,2013-06-10 10:40:00,
2013-06-10 05:55:00,58.9,56.6,29.79,West,265,0.0,2.0,92,0.00,,---,0.00,VWS V14.01,2013-06-10 10:55:00,
2013-06-10 06:10:00,59.2,57.2,29.79,West,263,1.0,4.0,93,0.00,,---,0.00,VWS V14.01,2013-06-10 11:10:00,
2013-06-10 06:25:00,59.3,57.3,29.80,SSW,192,2.0,4.0,93,0.00,,---,0.00,VWS V14.01,2013-06-10 11:25:00,
2013-06-10 06:40:00,59.6,57.6,29.80,SSW,199,0.0,4.0,93,0.00,,---,0.00,VWS V14.01,2013-06-10 11:40:00,
2013-06-10 06:55:00,59.9,57.9,29.80,WSW,251,0.0,5.0,93,0.00,,---,0.00,VWS V14.01,2013-06-10 11:55:00,
2013-06-10 07:10:00,60.2,57.9,29.80,WSW,254,0.0,6.0,92,0.00,,---,0.00,VWS V14.01,2013-06-10 12:10:00,
2013-06-10 07:25:00,60.8,58.5,29.81,West,267,2.0,6.0,92,0.00,,---,0.00,VWS V14.01,2013-06-10 12:25:00,
2013-06-10 07:40:00,61.3,58.7,29.82,WSW,247,0.0,5.0,91,0.00,,---,0.00,VWS V14.01,2013-06-10 12:40:00,
2013-06-10 07:55:00,61.5,58.8,29.82,SSE,161,2.0,6.0,91,0.00,,---,0.00,VWS V14.01,2013-06-10 12:55:00,
2013-06-10 08:10:00,61.7,59.0,29.82,SW,224,4.0,5.0,91,0.00,,---,0.00,VWS V14.01,2013-06-10 13:10:00,
2013-06-10 08:25:00,61.9,58.9,29.83,SW,234,0.0,5.0,90,0.00,,---,0.00,VWS V14.01,2013-06-10 13:25:00,
2013-06-10 08:40:00,62.2,58.9,29.82,NW,321,2.0,7.0,89,0.00,,---,0.00,VWS V14.01,2013-06-10 13:40:00,
2013-06-10 08:55:00,62.3,59.0,29.83,West,277,3.0,7.0,89,0.00,,---,0.00,VWS V14.01,2013-06-10 13:55:00,
2013-06-10 09:10:00,62.9,59.6,29.83,WNW,291,3.0,7.0,89,0.00,,---,0.00,VWS V14.01,2013-06-10 14:10:00,
2013-06-10 09:25:00,64.0,60.1,29.83,WNW,296,0.0,5.0,87,0.00,,---,0.00,VWS V14.01,2013-06-10 14:25:00,
2013-06-10 09:40:00,65.7,61.4,29.82,North,355,0.0,3.0,86,0.00,,---,0.00,VWS V14.01,2013-06-10 14:40:00,
2013-06-10 09:55:00,66.8,61.5,29.82,NW,304,2.0,5.0,83,0.00,,---,0.00,VWS V14.01,2013-06-10 14:55:00,
2013-06-10 10:10:00,67.6,62.3,29.82,West,265,0.0,7.0,83,0.00,,---,0.00,VWS V14.01,2013-06-10 15:10:00,
2013-06-10 10:25:00,67.9,61.9,29.83,SW,215,4.0,7.0,81,0.00,,---,0.00,VWS V14.01,2013-06-10 15:25:00,
2013-06-10 10:40:00,69.0,62.9,29.83,WNW,292,2.0,7.0,81,0.00,,---,0.00,VWS V14.01,2013-06-10 15:40:00,
2013-06-10 10:55:00,69.7,62.9,29.83,SW,236,2.0,8.0,79,0.00,,---,0.00,VWS V14.01,2013-06-10 15:55:00,
2013-06-10 11:10:00,70.5,63.3,29.83,WSW,250,3.0,7.0,78,0.00,,---,0.00,VWS V14.01,2013-06-10 16:10:00,
2013-06-10 11:25:00,71.6,64.8,29.83,WNW,287,2.0,5.0,79,0.00,,---,0.00,VWS V14.01,2013-06-10 16:25:00,
2013-06-10 11:40:00,72.7,65.4,29.83,SSW,211,3.0,5.0,78,0.00,,---,0.00,VWS V14.01,2013-06-10 16:40:00,
2013-06-10 11:55:00,73.5,65.5,29.83,WSW,246,1.0,7.0,76,0.00,,---,0.00,VWS V14.01,2013-06-10 16:55:00,
2013-06-10 12:10:00,73.9,64.7,29.82,West,269,0.0,6.0,73,0.00,,---,0.00,VWS V14.01,2013-06-10 17:10:00,
2013-06-10 12:25:00,74.6,65.4,29.82,West,273,0.0,5.0,73,0.00,,---,0.00,VWS V14.01,2013-06-10 17:25:00,
2013-06-10 12:40:00,74.9,64.5,29.82,NNW,331,2.0,5.0,70,0.00,,---,0.00,VWS V14.01,2013-06-10 17:40:00,
2013-06-10 12:55:00,75.8,65.7,29.81,North,360,0.0,6.0,71,0.00,,---,0.00,VWS V14.01,2013-06-10 17:55:00,
2013-06-10 13:10:00,76.1,65.6,29.81,West,277,0.0,5.0,70,0.00,,---,0.00,VWS V14.01,2013-06-10 18:10:00,
2013-06-10 13:25:00,76.2,65.7,29.81,NNW,335,0.0,8.0,70,0.00,,---,0.00,VWS V14.01,2013-06-10 18:25:00,
2013-06-10 13:40:00,77.4,65.2,29.81,NNW,335,0.0,4.0,66,0.00,,---,0.00,VWS V14.01,2013-06-10 18:40:00,
2013-06-10 13:55:00,78.1,65.4,29.81,SSW,199,4.0,6.0,65,0.00,,---,0.00,VWS V14.01,2013-06-10 18:55:00,
2013-06-10 14:10:00,78.5,66.6,29.81,West,262,2.0,5.0,67,0.00,,---,0.00,VWS V14.01,2013-06-10 19:10:00,
2013-06-10 14:25:00,79.3,67.4,29.80,SE,132,0.0,6.0,67,0.00,,---,0.00,VWS V14.01,2013-06-10 19:25:00,
2013-06-10 14:40:00,79.7,67.8,29.80,SE,134,4.0,6.0,67,0.00,,---,0.00,VWS V14.01,2013-06-10 19:40:00,
2013-06-10 14:55:00,79.6,67.7,29.80,SE,143,1.0,8.0,67,0.00,,---,0.00,VWS V14.01,2013-06-10 19:55:00,
2013-06-10 15:10:00,80.2,68.3,29.80,SE,144,6.0,7.0,67,0.00,,---,0.00,VWS V14.01,2013-06-10 20:10:00,
2013-06-10 15:25:00,80.7,67.4,29.80,SE,130,0.0,6.0,64,0.00,,---,0.00,VWS V14.01,2013-06-10 20:25:00,
2013-06-10 15:40:00,81.2,67.9,29.80,SSE,151,5.0,6.0,64,0.00,,---,0.00,VWS V14.01,2013-06-10 20:40:00,
2013-06-10 15:55:00,81.2,67.9,29.80,SSE,150,2.0,6.0,64,0.00,,---,0.00,VWS V14.01,2013-06-10 20:55:00,
2013-06-10 16:10:00,81.5,68.2,29.80,ESE,123,2.0,7.0,64,0.00,,---,0.00,VWS V14.01,2013-06-10 21:10:00,
2013-06-10 16:25:00,81.6,66.4,29.80,SE,134,0.0,8.0,60,0.00,,---,0.00,VWS V14.01,2013-06-10 21:25:00,
2013-06-10 16:40:00,81.9,64.7,29.79,ESE,111,2.0,8.0,56,0.00,,---,0.00,VWS V14.01,2013-06-10 21:40:00,
2013-06-10 16:55:00,82.1,67.8,29.79,ESE,108,1.0,6.0,62,0.00,,---,0.00,VWS V14.01,2013-06-10 21:55:00,
2013-06-10 17:10:00,82.1,67.8,29.79,ESE,105,1.0,5.0,62,0.00,,---,0.00,VWS V14.01,2013-06-10 22:10:00,
2013-06-10 17:25:00,81.9,66.2,29.78,ENE,70,4.0,7.0,59,0.00,,---,0.00,VWS V14.01,2013-06-10 22:25:00,
2013-06-10 17:40:00,81.4,66.7,29.78,ENE,71,0.0,7.0,61,0.00,,---,0.00,VWS V14.01,2013-06-10 22:40:00,
2013-06-10 17:55:00,81.8,66.1,29.77,SSE,156,2.0,7.0,59,0.00,,---,0.00,VWS V14.01,2013-06-10 22:55:00,
2013-06-10 18:10:00,81.8,67.1,29.76,ESE,119,1.0,8.0,61,0.00,,---,0.00,VWS V14.01,2013-06-10 23:10:00,
2013-06-10 18:25:00,81.9,67.6,29.75,East,95,5.0,8.0,62,0.00,,---,0.00,VWS V14.01,2013-06-10 23:25:00,
2013-06-10 18:40:00,81.5,67.2,29.75,ESE,102,4.0,7.0,62,0.00,,---,0.00,VWS V14.01,2013-06-10 23:40:00,
2013-06-10 18:55:00,81.2,67.4,29.75,ESE,114,2.0,7.0,63,0.00,,---,0.00,VWS V14.01,2013-06-10 23:55:00,
2013-06-10 19:10:00,80.8,67.0,29.75,East,94,4.0,8.0,63,0.00,,---,0.00,VWS V14.01,2013-06-11 00:10:00,
2013-06-10 19:25:00,80.2,67.4,29.75,SE,126,1.0,7.0,65,0.00,,---,0.00,VWS V14.01,2013-06-11 00:25:00,
2013-06-10 19:40:00,79.4,67.1,29.75,ESE,109,5.0,8.0,66,0.00,,---,0.00,VWS V14.01,2013-06-11 00:40:00,
2013-06-10 19:55:00,78.6,66.7,29.75,ESE,120,1.0,7.0,67,0.00,,---,0.00,VWS V14.01,2013-06-11 00:55:00,
2013-06-10 20:10:00,77.8,66.8,29.75,ESE,106,2.0,6.0,69,0.00,,---,0.00,VWS V14.01,2013-06-11 01:10:00,
2013-06-10 20:25:00,77.0,66.5,29.75,ESE,105,0.0,6.0,70,0.00,,---,0.00,VWS V14.01,2013-06-11 01:25:00,
2013-06-10 20:40:00,76.3,66.6,29.75,ESE,104,0.0,5.0,72,0.00,,---,0.00,VWS V14.01,2013-06-11 01:40:00,
2013-06-10 20:55:00,75.3,66.1,29.76,ESE,121,5.0,7.0,73,0.00,,---,0.00,VWS V14.01,2013-06-11 01:55:00,
2013-06-10 21:10:00,74.4,65.2,29.76,SE,136,1.0,7.0,73,0.00,,---,0.00,VWS V14.01,2013-06-11 02:10:00,
2013-06-10 21:25:00,73.9,65.1,29.76,SE,131,2.0,8.0,74,0.00,,---,0.00,VWS V14.01,2013-06-11 02:25:00,
2013-06-10 21:40:00,73.5,65.1,29.76,SE,128,5.0,8.0,75,0.00,,---,0.00,VWS V14.01,2013-06-11 02:40:00,
2013-06-10 21:55:00,73.3,65.3,29.76,ESE,121,4.0,8.0,76,0.00,,---,0.00,VWS V14.01,2013-06-11 02:55:00,
2013-06-10 22:10:00,73.1,65.1,29.76,ESE,110,1.0,8.0,76,0.00,,---,0.00,VWS V14.01,2013-06-11 03:10:00,
2013-06-10 22:25:00,72.9,65.3,29.76,ENE,63,0.0,8.0,77,0.00,,---,0.00,VWS V14.01,2013-06-11 03:25:00,
2013-06-10 22:40:00,72.8,65.2,29.77,SE,125,1.0,7.0,77,0.00,,---,0.00,VWS V14.01,2013-06-11 03:40:00,
2013-06-10 22:55:00,73.0,65.4,29.77,SE,131,1.0,9.0,77,0.00,,---,0.00,VWS V14.01,2013-06-11 03:55:00,
2013-06-10 23:10:00,73.1,65.5,29.77,SE,132,1.0,8.0,77,0.00,,---,0.00,VWS V14.01,2013-06-11 04:10:00,
2013-06-10 23:25:00,72.9,65.3,29.77,SE,135,0.0,8.0,77,0.00,,---,0.00,VWS V14.01,2013-06-11 04:25:00,
2013-06-10 23:40:00,72.5,65.3,29.77,ESE,113,0.0,7.0,78,0.00,,---,0.00,VWS V14.01,2013-06-11 04:40:00,
2013-06-10 23:55:00,72.4,65.2,29.77,SE,138,4.0,8.0,78,0.00,,---,0.00,VWS V14.01,2013-06-11 04:55:00,